Time,TemperatureF,DewpointF,PressureIn,WindDirection,WindDirectionDegrees,WindSpeedMPH,WindSpeedGustMPH,Humidity,HourlyPrecipIn,Conditions,Clouds,dailyrainin,SoftwareType,DateUTC
2013-07-09 00:00:00,78.3,72.7,30.03,ESE,113,0.0,5.0,83,0.00,,---,0.00,VWS V15.00,2013-07-09 04:00:00,
2013-07-09 00:01:00,78.3,72.7,30.03,WSW,238,0.0,5.0,83,0.00,,---,0.00,VWS V14.01,2013-07-09 04:01:00,
2013-07-09 00:06:00,78.1,72.9,30.03,ESE,113,0.0,0.0,84,0.00,,---,0.00,VWS V14.01,2013-07-09 04:06:00,
2013-07-09 00:11:00,78.0,72.8,30.03,ESE,123,0.0,1.0,84,0.00,,---,0.00,VWS V14.01,2013-07-09 04:11:00,
2013-07-09 00:16:00,77.8,72.6,30.03,NW,311,0.0,3.0,84,0.00,,---,0.00,VWS V14.01,2013-07-09 04:16:00,
2013-07-09 00:21:00,77.7,72.5,30.03,SE,138,0.0,3.0,84,0.00,,---,0.00,VWS V14.01,2013-07-09 04:21:00,
2013-07-09 00:26:00,77.6,72.4,30.03,ESE,102,0.0,3.0,84,0.00,,---,0.00,VWS V14.01,2013-07-09 04:26:00,
2013-07-09 00:30:00,77.6,72.4,30.03,SE,134,0.0,3.0,84,0.00,,---,0.00,VWS V15.00,2013-07-09 04:30:00,
2013-07-09 00:31:00,77.6,72.4,30.03,SE,134,0.0,3.0,84,0.00,,---,0.00,VWS V14.01,2013-07-09 04:31:00,
2013-07-09 00:36:00,77.5,72.6,30.04,SE,146,0.0,1.0,85,0.00,,---,0.00,VWS V14.01,2013-07-09 04:36:00,
2013-07-09 00:41:00,77.5,72.6,30.04,SE,141,0.0,1.0,85,0.00,,---,0.00,VWS V14.01,2013-07-09 04:41:00,
2013-07-09 00:46:00,77.4,72.5,30.03,East,98,0.0,1.0,85,0.00,,---,0.00,VWS V14.01,2013-07-09 04:46:00,
2013-07-09 00:51:00,77.4,72.5,30.03,East,96,0.0,1.0,85,0.00,,---,0.00,VWS V14.01,2013-07-09 04:51:00,
2013-07-09 00:56:00,77.3,72.4,30.03,East,101,0.0,1.0,85,0.00,,---,0.00,VWS V14.01,2013-07-09 04:56:00,
2013-07-09 01:00:00,77.2,72.3,30.03,ESE,104,0.0,1.0,85,0.00,,---,0.00,VWS V15.00,2013-07-09 05:00:00,
2013-07-09 01:01:00,77.2,72.3,30.03,ESE,104,0.0,1.0,85,0.00,,---,0.00,VWS V14.01,2013-07-09 05:01:00,
2013-07-09 01:06:00,77.1,72.2,30.03,ESE,106,0.0,0.0,85,0.00,,---,0.00,VWS V14.01,2013-07-09 05:06:00,
2013-07-09 01:11:00,77.0,72.2,30.03,North,353,0.0,0.0,85,0.00,,---,0.00,VWS V14.01,2013-07-09 05:11:00,
2013-07-09 01:16:00,77.0,72.2,30.03,North,353,0.0,0.0,85,0.00,,---,0.00,VWS V14.01,2013-07-09 05:16:00,
2013-07-09 01:21:00,77.0,72.2,30.03,WSW,249,0.0,1.0,85,0.00,,---,0.00,VWS V14.01,2013-07-09 05:21:00,
2013-07-09 01:26:00,77.0,72.2,30.03,WSW,248,0.0,1.0,85,0.00,,---,0.00,VWS V14.01,2013-07-09 05:26:00,
2013-07-09 01:30:00,76.9,72.1,30.03,SW,219,0.0,1.0,85,0.00,,---,0.00,VWS V15.00,2013-07-09 05:30:00,
2013-07-09 01:31:00,76.9,72.1,30.03,SW,218,0.0,1.0,85,0.00,,---,0.00,VWS V14.01,2013-07-09 05:31:00,
2013-07-09 01:36:00,76.8,71.9,30.03,SW,219,0.0,1.0,85,0.00,,---,0.00,VWS V14.01,2013-07-09 05:36:00,
2013-07-09 01:41:00,76.6,71.8,30.03,SW,219,0.0,1.0,85,0.00,,---,0.00,VWS V14.01,2013-07-09 05:41:00,
2013-07-09 01:46:00,76.5,71.7,30.03,SW,219,0.0,1.0,85,0.00,,---,0.00,VWS V14.01,2013-07-09 05:46:00,
2013-07-09 01:51:00,76.4,71.9,30.03,SW,221,0.0,1.0,86,0.00,,---,0.00,VWS V14.01,2013-07-09 05:51:00,
2013-07-09 01:56:00,76.4,71.9,30.03,West,280,0.0,1.0,86,0.00,,---,0.00,VWS V14.01,2013-07-09 05:56:00,
2013-07-09 02:00:00,76.4,71.6,30.02,ESE,119,0.0,1.0,85,0.00,,---,0.00,VWS V15.00,2013-07-09 06:00:00,
2013-07-09 02:01:00,76.4,71.6,30.02,SSE,153,0.0,1.0,85,0.00,,---,0.00,VWS V14.01,2013-07-09 06:01:00,
2013-07-09 02:06:00,76.4,71.9,30.02,SW,214,0.0,1.0,86,0.00,,---,0.00,VWS V14.01,2013-07-09 06:06:00,
2013-07-09 02:11:00,76.3,71.8,30.02,ENE,61,0.0,2.0,86,0.00,,---,0.00,VWS V14.01,2013-07-09 06:11:00,
2013-07-09 02:16:00,76.2,71.7,30.02,ENE,61,0.0,2.0,86,0.00,,---,0.00,VWS V14.01,2013-07-09 06:16:00,
2013-07-09 02:21:00,76.1,71.6,30.02,NW,307,0.0,2.0,86,0.00,,---,0.00,VWS V14.01,2013-07-09 06:21:00,
2013-07-09 02:26:00,76.1,71.6,30.02,NW,304,0.0,2.0,86,0.00,,---,0.00,VWS V14.01,2013-07-09 06:26:00,
2013-07-09 02:30:00,76.1,71.6,30.02,WNW,284,0.0,2.0,86,0.00,,---,0.00,VWS V15.00,2013-07-09 06:30:00,
2013-07-09 02:31:00,76.1,71.6,30.02,WNW,284,0.0,2.0,86,0.00,,---,0.00,VWS V14.01,2013-07-09 06:31:00,
2013-07-09 02:36:00,76.1,71.6,30.01,WNW,285,0.0,0.0,86,0.00,,---,0.00,VWS V14.01,2013-07-09 06:36:00,
2013-07-09 02:41:00,76.0,71.5,30.01,WNW,284,0.0,0.0,86,0.00,,---,0.00,VWS V14.01,2013-07-09 06:41:00,
2013-07-09 02:46:00,75.9,71.4,30.01,ENE,75,0.0,0.0,86,0.00,,---,0.00,VWS V14.01,2013-07-09 06:46:00,
2013-07-09 02:51:00,75.9,71.4,30.01,WSW,250,0.0,4.0,86,0.00,,---,0.00,VWS V14.01,2013-07-09 06:51:00,
2013-07-09 02:56:00,76.0,71.5,30.00,WSW,251,0.0,4.0,86,0.00,,---,0.00,VWS V14.01,2013-07-09 06:56:00,
2013-07-09 03:00:00,76.0,71.5,30.00,SW,217,0.0,4.0,86,0.00,,---,0.00,VWS V15.00,2013-07-09 07:00:00,
2013-07-09 03:01:00,76.0,71.5,30.00,SW,217,0.0,4.0,86,0.00,,---,0.00,VWS V14.01,2013-07-09 07:01:00,
2013-07-09 03:06:00,76.0,71.5,30.01,NW,326,0.0,2.0,86,0.00,,---,0.00,VWS V14.01,2013-07-09 07:06:00,
2013-07-09 03:11:00,76.0,71.5,30.01,NW,326,0.0,2.0,86,0.00,,---,0.00,VWS V14.01,2013-07-09 07:11:00,
2013-07-09 03:16:00,76.0,71.5,30.01,West,270,0.0,2.0,86,0.00,,---,0.00,VWS V14.01,2013-07-09 07:16:00,
2013-07-09 03:21:00,76.1,71.6,30.01,West,273,0.0,2.0,86,0.00,,---,0.00,VWS V14.01,2013-07-09 07:21:00,
2013-07-09 03:26:00,76.1,71.6,30.01,West,280,0.0,2.0,86,0.00,,---,0.00,VWS V14.01,2013-07-09 07:26:00,
2013-07-09 03:30:00,76.1,71.6,30.01,West,271,0.0,2.0,86,0.00,,---,0.00,VWS V15.00,2013-07-09 07:30:00,
2013-07-09 03:31:00,76.1,71.6,30.01,West,273,0.0,2.0,86,0.00,,---,0.00,VWS V14.01,2013-07-09 07:31:00,
2013-07-09 03:36:00,76.1,71.6,30.01,West,273,0.0,0.0,86,0.00,,---,0.00,VWS V14.01,2013-07-09 07:36:00,
2013-07-09 03:41:00,76.0,71.5,30.01,West,272,0.0,0.0,86,0.00,,---,0.00,VWS V14.01,2013-07-09 07:41:00,
2013-07-09 03:46:00,75.9,71.4,30.01,West,273,0.0,0.0,86,0.00,,---,0.00,VWS V14.01,2013-07-09 07:46:00,
2013-07-09 03:53:00,76.0,71.5,30.02,North,8,0.0,0.0,86,0.00,,---,0.00,VWS V14.01,2013-07-09 07:53:00,
2013-07-09 03:58:00,76.0,71.5,30.02,North,351,0.0,0.0,86,0.00,,---,0.00,VWS V14.01,2013-07-09 07:58:00,
2013-07-09 04:00:00,76.1,71.6,30.01,North,351,0.0,0.0,86,0.00,,---,0.00,VWS V15.00,2013-07-09 08:00:00,
2013-07-09 04:03:00,76.0,71.5,30.01,North,354,0.0,0.0,86,0.00,,---,0.00,VWS V14.01,2013-07-09 08:03:00,
2013-07-09 04:08:00,75.9,71.8,30.01,West,262,0.0,0.0,87,0.00,,---,0.00,VWS V14.01,2013-07-09 08:08:00,
2013-07-09 04:13:00,75.9,71.8,30.01,East,93,0.0,2.0,87,0.00,,---,0.00,VWS V14.01,2013-07-09 08:13:00,
2013-07-09 04:18:00,75.9,71.8,30.01,SSE,160,0.0,2.0,87,0.00,,---,0.00,VWS V14.01,2013-07-09 08:18:00,
2013-07-09 04:23:00,75.9,71.8,30.01,SE,124,0.0,2.0,87,0.00,,---,0.00,VWS V14.01,2013-07-09 08:23:00,
2013-07-09 04:28:00,75.8,71.7,30.01,NNE,33,0.0,2.0,87,0.00,,---,0.00,VWS V14.01,2013-07-09 08:28:00,
2013-07-09 04:30:00,75.8,71.7,30.02,NNW,338,1.0,3.0,87,0.00,,---,0.00,VWS V15.00,2013-07-09 08:30:00,
2013-07-09 04:33:00,75.8,71.7,30.02,NNW,338,0.0,1.0,87,0.00,,---,0.00,VWS V14.01,2013-07-09 08:33:00,
2013-07-09 04:38:00,75.8,71.7,30.02,North,6,0.0,2.0,87,0.00,,---,0.00,VWS V14.01,2013-07-09 08:38:00,
2013-07-09 04:42:00,75.7,71.6,30.02,ESE,105,0.0,2.0,87,0.00,,---,0.00,VWS V14.01,2013-07-09 08:42:00,
2013-07-09 04:47:00,75.7,71.9,30.02,WSW,243,0.0,2.0,88,0.00,,---,0.00,VWS V14.01,2013-07-09 08:47:00,
2013-07-09 04:52:00,75.6,71.8,30.02,WSW,243,0.0,2.0,88,0.00,,---,0.00,VWS V14.01,2013-07-09 08:52:00,
2013-07-09 04:57:00,75.5,71.7,30.02,SE,131,0.0,2.0,88,0.00,,---,0.00,VWS V14.01,2013-07-09 08:57:00,
2013-07-09 05:00:00,75.5,71.7,30.02,ESE,116,0.0,2.0,88,0.00,,---,0.00,VWS V15.00,2013-07-09 09:00:00,
2013-07-09 05:02:00,75.5,71.7,30.02,ESE,116,0.0,0.0,88,0.00,,---,0.00,VWS V14.01,2013-07-09 09:02:00,
2013-07-09 05:07:00,75.5,71.7,30.02,SW,224,0.0,0.0,88,0.00,,---,0.00,VWS V14.01,2013-07-09 09:07:00,
2013-07-09 05:12:00,75.4,71.6,30.02,SSW,212,0.0,0.0,88,0.00,,---,0.00,VWS V14.01,2013-07-09 09:12:00,
2013-07-09 05:17:00,75.3,71.8,30.02,SSW,211,0.0,0.0,89,0.00,,---,0.00,VWS V14.01,2013-07-09 09:17:00,
2013-07-09 05:22:00,75.1,71.6,30.02,West,260,0.0,0.0,89,0.00,,---,0.00,VWS V14.01,2013-07-09 09:22:00,
2013-07-09 05:27:00,75.1,71.6,30.02,West,276,0.0,4.0,89,0.00,,---,0.00,VWS V14.01,2013-07-09 09:27:00,
2013-07-09 05:30:00,75.3,71.8,30.01,ESE,113,0.0,4.0,89,0.00,,---,0.00,VWS V15.00,2013-07-09 09:30:00,
2013-07-09 05:32:00,75.3,71.8,30.02,ESE,111,0.0,0.0,89,0.00,,---,0.00,VWS V14.01,2013-07-09 09:32:00,
2013-07-09 05:37:00,75.3,71.8,30.01,SW,225,0.0,2.0,89,0.00,,---,0.00,VWS V14.01,2013-07-09 09:37:00,
2013-07-09 05:42:00,75.2,71.7,30.02,ENE,61,0.0,2.0,89,0.00,,---,0.00,VWS V14.01,2013-07-09 09:42:00,
2013-07-09 05:47:00,75.2,71.7,30.02,ESE,117,0.0,2.0,89,0.00,,---,0.00,VWS V14.01,2013-07-09 09:47:00,
2013-07-09 05:52:00,75.1,71.6,30.02,SSE,148,1.0,2.0,89,0.00,,---,0.00,VWS V14.01,2013-07-09 09:52:00,
2013-07-09 05:57:00,75.1,71.6,30.02,SSE,148,0.0,2.0,89,0.00,,---,0.00,VWS V14.01,2013-07-09 09:57:00,
2013-07-09 06:00:00,75.1,72.0,30.02,NW,311,0.0,2.0,90,0.00,,---,0.00,VWS V15.00,2013-07-09 10:00:00,
2013-07-09 06:02:00,75.1,71.6,30.02,NW,311,0.0,0.0,89,0.00,,---,0.00,VWS V14.01,2013-07-09 10:02:00,
2013-07-09 06:07:00,75.1,72.0,30.02,NW,307,0.0,0.0,90,0.00,,---,0.00,VWS V14.01,2013-07-09 10:07:00,
2013-07-09 06:12:00,75.0,71.9,30.02,NW,306,0.0,0.0,90,0.00,,---,0.00,VWS V14.01,2013-07-09 10:12:00,
2013-07-09 06:17:00,74.9,71.8,30.02,NW,308,0.0,0.0,90,0.00,,---,0.00,VWS V14.01,2013-07-09 10:17:00,
2013-07-09 06:22:00,75.0,71.9,30.02,West,274,0.0,0.0,90,0.00,,---,0.00,VWS V14.01,2013-07-09 10:22:00,
2013-07-09 06:27:00,75.0,71.9,30.02,West,274,0.0,0.0,90,0.00,,---,0.00,VWS V14.01,2013-07-09 10:27:00,
2013-07-09 06:30:00,74.9,72.1,30.02,SSE,153,0.0,0.0,91,0.00,,---,0.00,VWS V15.00,2013-07-09 10:30:00,
2013-07-09 06:32:00,74.9,72.1,30.02,SW,229,0.0,2.0,91,0.00,,---,0.00,VWS V14.01,2013-07-09 10:32:00,
2013-07-09 06:37:00,74.7,71.9,30.02,SW,224,0.0,2.0,91,0.00,,---,0.00,VWS V14.01,2013-07-09 10:37:00,
2013-07-09 06:42:00,74.7,71.9,30.03,ESE,117,0.0,2.0,91,0.00,,---,0.00,VWS V14.01,2013-07-09 10:42:00,
2013-07-09 06:47:00,74.7,71.9,30.03,NW,311,0.0,2.0,91,0.00,,---,0.00,VWS V14.01,2013-07-09 10:47:00,
2013-07-09 06:52:00,74.8,72.0,30.02,West,270,0.0,2.0,91,0.00,,---,0.00,VWS V14.01,2013-07-09 10:52:00,
2013-07-09 06:57:00,74.8,72.0,30.03,WNW,284,0.0,2.0,91,0.00,,---,0.00,VWS V14.01,2013-07-09 10:57:00,
2013-07-09 07:00:00,74.8,72.0,30.03,WNW,285,0.0,2.0,91,0.00,,---,0.00,VWS V15.00,2013-07-09 11:00:00,
2013-07-09 07:02:00,74.8,72.0,30.03,WNW,284,0.0,0.0,91,0.00,,---,0.00,VWS V14.01,2013-07-09 11:02:00,
2013-07-09 07:07:00,74.9,71.8,30.03,NNW,330,0.0,0.0,90,0.00,,---,0.00,VWS V14.01,2013-07-09 11:07:00,
2013-07-09 07:12:00,75.0,71.9,30.03,WNW,295,0.0,0.0,90,0.00,,---,0.00,VWS V14.01,2013-07-09 11:12:00,
2013-07-09 07:17:00,75.1,72.0,30.03,WNW,293,0.0,0.0,90,0.00,,---,0.00,VWS V14.01,2013-07-09 11:17:00,
2013-07-09 07:22:00,75.2,72.1,30.03,West,276,0.0,0.0,90,0.00,,---,0.00,VWS V14.01,2013-07-09 11:22:00,
2013-07-09 07:27:00,75.3,71.8,30.03,West,276,0.0,0.0,89,0.00,,---,0.00,VWS V14.01,2013-07-09 11:27:00,
2013-07-09 07:30:00,75.4,71.9,30.04,West,266,0.0,0.0,89,0.00,,---,0.00,VWS V15.00,2013-07-09 11:30:00,
2013-07-09 07:32:00,75.4,71.9,30.04,West,266,0.0,0.0,89,0.00,,---,0.00,VWS V14.01,2013-07-09 11:32:00,
2013-07-09 07:37:00,75.5,72.0,30.03,West,277,0.0,0.0,89,0.00,,---,0.00,VWS V14.01,2013-07-09 11:37:00,
2013-07-09 07:42:00,75.7,72.2,30.04,West,268,0.0,0.0,89,0.00,,---,0.00,VWS V14.01,2013-07-09 11:42:00,
2013-07-09 07:47:00,76.0,72.5,30.04,WNW,300,0.0,0.0,89,0.00,,---,0.00,VWS V14.01,2013-07-09 11:47:00,
2013-07-09 07:52:00,76.4,72.9,30.03,East,81,0.0,3.0,89,0.00,,---,0.00,VWS V14.01,2013-07-09 11:52:00,
2013-07-09 07:57:00,76.7,72.5,30.03,West,275,0.0,3.0,87,0.00,,---,0.00,VWS V14.01,2013-07-09 11:57:00,
2013-07-09 08:00:00,77.1,72.9,30.03,SSE,162,0.0,3.0,87,0.00,,---,0.00,VWS V15.00,2013-07-09 12:00:00,
2013-07-09 08:02:00,77.1,72.9,30.03,SSE,162,0.0,0.0,87,0.00,,---,0.00,VWS V14.01,2013-07-09 12:02:00,
2013-07-09 08:07:00,77.2,72.7,30.03,WSW,252,0.0,2.0,86,0.00,,---,0.00,VWS V14.01,2013-07-09 12:07:00,
2013-07-09 08:12:00,77.2,72.7,30.03,WSW,252,0.0,2.0,86,0.00,,---,0.00,VWS V14.01,2013-07-09 12:12:00,
2013-07-09 08:17:00,77.3,73.1,30.03,West,270,0.0,2.0,87,0.00,,---,0.00,VWS V14.01,2013-07-09 12:17:00,
2013-07-09 08:22:00,77.7,73.2,30.02,WSW,248,0.0,4.0,86,0.00,,---,0.00,VWS V14.01,2013-07-09 12:22:00,
2013-07-09 08:27:00,77.8,72.9,30.02,SSE,166,0.0,4.0,85,0.00,,---,0.00,VWS V14.01,2013-07-09 12:27:00,
2013-07-09 08:30:00,77.8,73.3,30.03,NW,308,0.0,4.0,86,0.00,,---,0.00,VWS V15.00,2013-07-09 12:30:00,
2013-07-09 08:32:00,77.8,73.3,30.03,North,358,0.0,0.0,86,0.00,,---,0.00,VWS V14.01,2013-07-09 12:32:00,
2013-07-09 08:37:00,77.9,73.0,30.03,West,270,0.0,0.0,85,0.00,,---,0.00,VWS V14.01,2013-07-09 12:37:00,
2013-07-09 08:42:00,78.3,73.1,30.03,West,275,0.0,0.0,84,0.00,,---,0.00,VWS V14.01,2013-07-09 12:42:00,
2013-07-09 08:47:00,78.8,73.6,30.03,WSW,243,0.0,0.0,84,0.00,,---,0.00,VWS V14.01,2013-07-09 12:47:00,
2013-07-09 08:52:00,79.3,73.3,30.03,West,262,0.0,0.0,82,0.00,,---,0.00,VWS V14.01,2013-07-09 12:52:00,
2013-07-09 08:57:00,79.2,73.2,30.03,West,281,0.0,0.0,82,0.00,,---,0.00,VWS V14.01,2013-07-09 12:57:00,
2013-07-09 09:00:00,79.0,73.0,30.03,West,280,0.0,0.0,82,0.00,,---,0.00,VWS V15.00,2013-07-09 13:00:00,
2013-07-09 09:02:00,79.0,73.4,30.03,West,281,0.0,0.0,83,0.00,,---,0.00,VWS V14.01,2013-07-09 13:02:00,
2013-07-09 09:07:00,78.9,72.9,30.03,WNW,287,0.0,0.0,82,0.00,,---,0.00,VWS V14.01,2013-07-09 13:07:00,
2013-07-09 09:12:00,79.0,73.0,30.03,WNW,284,0.0,0.0,82,0.00,,---,0.00,VWS V14.01,2013-07-09 13:12:00,
2013-07-09 09:17:00,79.6,73.6,30.03,West,267,0.0,0.0,82,0.00,,---,0.00,VWS V14.01,2013-07-09 13:17:00,
2013-07-09 09:22:00,79.9,73.2,30.03,West,260,1.0,1.0,80,0.00,,---,0.00,VWS V14.01,2013-07-09 13:22:00,
2013-07-09 09:27:00,80.3,73.9,30.03,West,281,0.0,1.0,81,0.00,,---,0.00,VWS V14.01,2013-07-09 13:27:00,
2013-07-09 09:30:00,80.6,74.2,30.03,West,276,0.0,2.0,81,0.00,,---,0.00,VWS V15.00,2013-07-09 13:30:00,
2013-07-09 09:32:00,80.6,73.9,30.03,West,267,1.0,1.0,80,0.00,,---,0.00,VWS V14.01,2013-07-09 13:32:00,
2013-07-09 09:37:00,80.9,74.2,30.03,WNW,302,0.0,2.0,80,0.00,,---,0.00,VWS V14.01,2013-07-09 13:37:00,
2013-07-09 09:42:00,81.4,73.9,30.03,West,260,1.0,2.0,78,0.00,,---,0.00,VWS V14.01,2013-07-09 13:42:00,
2013-07-09 09:47:00,81.7,74.6,30.03,West,263,0.0,2.0,79,0.00,,---,0.00,VWS V14.01,2013-07-09 13:47:00,
2013-07-09 09:52:00,82.0,74.5,30.03,West,277,0.0,2.0,78,0.00,,---,0.00,VWS V14.01,2013-07-09 13:52:00,
2013-07-09 09:57:00,81.9,74.8,30.03,West,278,0.0,2.0,79,0.00,,---,0.00,VWS V14.01,2013-07-09 13:57:00,
2013-07-09 10:00:00,82.4,74.9,30.03,WSW,257,0.0,2.0,78,0.00,,---,0.00,VWS V15.00,2013-07-09 14:00:00,
2013-07-09 10:02:00,82.5,74.9,30.03,SW,231,0.0,1.0,78,0.00,,---,0.00,VWS V14.01,2013-07-09 14:02:00,
2013-07-09 10:07:00,83.0,75.1,30.03,WNW,284,0.0,2.0,77,0.00,,---,0.00,VWS V14.01,2013-07-09 14:07:00,
2013-07-09 10:12:00,83.0,74.7,30.03,West,280,2.0,2.0,76,0.00,,---,0.00,VWS V14.01,2013-07-09 14:12:00,
2013-07-09 10:17:00,83.3,75.3,30.03,WSW,253,0.0,2.0,77,0.00,,---,0.00,VWS V14.01,2013-07-09 14:17:00,
2013-07-09 10:22:00,83.5,75.1,30.03,WNW,298,1.0,2.0,76,0.00,,---,0.00,VWS V14.01,2013-07-09 14:22:00,
2013-07-09 10:27:00,83.6,74.8,30.02,West,280,0.0,3.0,75,0.00,,---,0.00,VWS V14.01,2013-07-09 14:27:00,
2013-07-09 10:30:00,83.7,74.9,30.02,West,278,2.0,5.0,75,0.00,,---,0.00,VWS V15.00,2013-07-09 14:30:00,
2013-07-09 10:32:00,83.7,74.9,30.02,West,269,1.0,3.0,75,0.00,,---,0.00,VWS V14.01,2013-07-09 14:32:00,
2013-07-09 10:37:00,83.7,75.3,30.02,West,263,1.0,4.0,76,0.00,,---,0.00,VWS V14.01,2013-07-09 14:37:00,
2013-07-09 10:42:00,84.4,76.4,30.02,West,276,2.0,4.0,77,0.00,,---,0.00,VWS V14.01,2013-07-09 14:42:00,
2013-07-09 10:47:00,84.0,75.6,30.02,WNW,284,2.0,5.0,76,0.00,,---,0.00,VWS V14.01,2013-07-09 14:47:00,
2013-07-09 10:52:00,83.9,74.7,30.02,West,270,1.0,5.0,74,0.00,,---,0.00,VWS V14.01,2013-07-09 14:52:00,
2013-07-09 10:57:00,83.8,75.8,30.02,WNW,290,1.0,5.0,77,0.00,,---,0.00,VWS V14.01,2013-07-09 14:57:00,
2013-07-09 11:00:00,84.0,75.2,30.02,West,280,0.0,5.0,75,0.00,,---,0.00,VWS V15.00,2013-07-09 15:00:00,
2013-07-09 11:02:00,84.0,75.2,30.02,WNW,302,1.0,2.0,75,0.00,,---,0.00,VWS V14.01,2013-07-09 15:02:00,
2013-07-09 11:07:00,84.4,76.0,30.02,West,263,2.0,3.0,76,0.00,,---,0.00,VWS V14.01,2013-07-09 15:07:00,
2013-07-09 11:12:00,84.5,75.7,30.02,West,280,0.0,3.0,75,0.00,,---,0.00,VWS V14.01,2013-07-09 15:12:00,
2013-07-09 11:17:00,84.9,76.1,30.02,WNW,285,1.0,3.0,75,0.00,,---,0.00,VWS V14.01,2013-07-09 15:17:00,
2013-07-09 11:22:00,85.2,76.0,30.02,West,281,3.0,4.0,74,0.00,,---,0.00,VWS V14.01,2013-07-09 15:22:00,
2013-07-09 11:27:00,85.4,77.0,30.02,WNW,293,1.0,6.0,76,0.00,,---,0.00,VWS V14.01,2013-07-09 15:27:00,
2013-07-09 11:30:00,85.7,76.5,30.01,West,279,1.0,6.0,74,0.00,,---,0.00,VWS V15.00,2013-07-09 15:30:00,
2013-07-09 11:32:00,85.7,76.5,30.01,West,275,1.0,1.0,74,0.00,,---,0.00,VWS V14.01,2013-07-09 15:32:00,
2013-07-09 11:37:00,86.1,76.4,30.02,West,260,2.0,3.0,73,0.00,,---,0.00,VWS V14.01,2013-07-09 15:37:00,
2013-07-09 11:42:00,86.1,76.4,30.01,West,276,2.0,4.0,73,0.00,,---,0.00,VWS V14.01,2013-07-09 15:42:00,
2013-07-09 11:47:00,86.3,75.8,30.01,WSW,257,2.0,4.0,71,0.00,,---,0.00,VWS V14.01,2013-07-09 15:47:00,
2013-07-09 11:52:00,86.2,75.7,30.01,West,267,3.0,5.0,71,0.00,,---,0.00,VWS V14.01,2013-07-09 15:52:00,
2013-07-09 11:57:00,86.0,75.5,30.01,West,276,1.0,8.0,71,0.00,,---,0.00,VWS V14.01,2013-07-09 15:57:00,
2013-07-09 12:00:00,86.1,76.0,30.01,NNE,33,0.0,8.0,72,0.00,,---,0.00,VWS V15.00,2013-07-09 16:00:00,
2013-07-09 12:02:00,86.1,76.0,30.01,WNW,284,2.0,2.0,72,0.00,,---,0.00,VWS V14.01,2013-07-09 16:02:00,
2013-07-09 12:07:00,86.8,77.1,30.01,WNW,285,0.0,3.0,73,0.00,,---,0.00,VWS V14.01,2013-07-09 16:07:00,
2013-07-09 12:12:00,87.1,76.6,30.01,WSW,258,6.0,6.0,71,0.00,,---,0.00,VWS V14.01,2013-07-09 16:12:00,
2013-07-09 12:17:00,87.2,77.1,30.01,WSW,245,2.0,6.0,72,0.00,,---,0.00,VWS V14.01,2013-07-09 16:17:00,
2013-07-09 12:22:00,87.5,75.2,30.01,West,278,3.0,6.0,67,0.00,,---,0.00,VWS V14.01,2013-07-09 16:22:00,
2013-07-09 12:27:00,87.2,74.9,30.01,WSW,258,3.0,6.0,67,0.00,,---,0.00,VWS V14.01,2013-07-09 16:27:00,
2013-07-09 12:30:00,87.4,75.1,30.01,WSW,238,2.0,6.0,67,0.00,,---,0.00,VWS V15.00,2013-07-09 16:30:00,
2013-07-09 12:32:00,87.4,75.1,30.01,WNW,290,3.0,3.0,67,0.00,,---,0.00,VWS V14.01,2013-07-09 16:32:00,
2013-07-09 12:37:00,87.8,76.4,30.01,West,263,1.0,4.0,69,0.00,,---,0.00,VWS V14.01,2013-07-09 16:37:00,
2013-07-09 12:42:00,88.3,76.0,30.01,WNW,284,2.0,4.0,67,0.00,,---,0.00,VWS V14.01,2013-07-09 16:42:00,
2013-07-09 12:47:00,88.3,75.5,30.01,WSW,250,1.0,4.0,66,0.00,,---,0.00,VWS V14.01,2013-07-09 16:47:00,
2013-07-09 12:52:00,88.4,75.6,30.01,WSW,248,1.0,4.0,66,0.00,,---,0.00,VWS V14.01,2013-07-09 16:52:00,
2013-07-09 12:57:00,88.2,75.0,30.01,West,278,3.0,5.0,65,0.00,,---,0.00,VWS V14.01,2013-07-09 16:57:00,
2013-07-09 13:00:00,88.2,75.0,30.01,West,264,1.0,5.0,65,0.00,,---,0.00,VWS V15.00,2013-07-09 17:00:00,
2013-07-09 13:02:00,88.2,75.4,30.01,West,277,1.0,1.0,66,0.00,,---,0.00,VWS V14.01,2013-07-09 17:02:00,
2013-07-09 13:07:00,88.2,75.4,30.01,WNW,285,1.0,4.0,66,0.00,,---,0.00,VWS V14.01,2013-07-09 17:07:00,
2013-07-09 13:12:00,88.3,76.0,30.01,West,272,1.0,4.0,67,0.00,,---,0.00,VWS V14.01,2013-07-09 17:12:00,
2013-07-09 13:17:00,88.4,75.6,30.01,WNW,297,2.0,4.0,66,0.00,,---,0.00,VWS V14.01,2013-07-09 17:17:00,
2013-07-09 13:22:00,88.7,76.3,30.01,WNW,293,3.0,4.0,67,0.00,,---,0.00,VWS V14.01,2013-07-09 17:22:00,
2013-07-09 13:27:00,88.4,75.1,30.01,West,271,1.0,4.0,65,0.00,,---,0.00,VWS V14.01,2013-07-09 17:27:00,
2013-07-09 13:30:00,88.3,75.1,30.01,West,280,0.0,4.0,65,0.00,,---,0.00,VWS V15.00,2013-07-09 17:30:00,
2013-07-09 13:32:00,88.3,75.5,30.01,WNW,293,1.0,2.0,66,0.00,,---,0.00,VWS V14.01,2013-07-09 17:32:00,
2013-07-09 13:37:00,88.1,75.8,30.01,West,262,1.0,3.0,67,0.00,,---,0.00,VWS V14.01,2013-07-09 17:37:00,
2013-07-09 13:42:00,87.9,75.6,30.01,WNW,290,1.0,4.0,67,0.00,,---,0.00,VWS V14.01,2013-07-09 17:42:00,
2013-07-09 13:47:00,87.7,74.9,30.00,West,276,2.0,4.0,66,0.00,,---,0.00,VWS V14.01,2013-07-09 17:47:00,
2013-07-09 13:52:00,87.7,74.5,30.00,West,271,1.0,4.0,65,0.00,,---,0.00,VWS V14.01,2013-07-09 17:52:00,
2013-07-09 13:57:00,87.6,74.8,30.00,WNW,293,3.0,4.0,66,0.00,,---,0.00,VWS V14.01,2013-07-09 17:57:00,
2013-07-09 14:00:00,87.7,75.4,30.00,West,259,1.0,4.0,67,0.00,,---,0.00,VWS V15.00,2013-07-09 18:00:00,
2013-07-09 14:02:00,87.7,76.3,30.00,WNW,287,2.0,2.0,69,0.00,,---,0.00,VWS V14.01,2013-07-09 18:02:00,
2013-07-09 14:07:00,87.9,76.0,30.01,WNW,283,1.0,2.0,68,0.00,,---,0.00,VWS V14.01,2013-07-09 18:07:00,
2013-07-09 14:12:00,87.5,75.6,30.01,WNW,282,2.0,8.0,68,0.00,,---,0.00,VWS V14.01,2013-07-09 18:12:00,
2013-07-09 14:17:00,87.3,75.9,30.01,WNW,288,1.0,8.0,69,0.00,,---,0.00,VWS V14.01,2013-07-09 18:17:00,
2013-07-09 14:22:00,87.2,75.8,30.01,West,276,2.0,8.0,69,0.00,,---,0.00,VWS V14.01,2013-07-09 18:22:00,
2013-07-09 14:27:00,87.1,75.7,30.00,WSW,252,3.0,8.0,69,0.00,,---,0.00,VWS V14.01,2013-07-09 18:27:00,
2013-07-09 14:30:00,87.0,75.2,30.00,West,274,2.0,8.0,68,0.00,,---,0.00,VWS V15.00,2013-07-09 18:30:00,
2013-07-09 14:32:00,87.0,75.6,30.00,West,273,2.0,2.0,69,0.00,,---,0.00,VWS V14.01,2013-07-09 18:32:00,
2013-07-09 14:37:00,86.9,75.5,30.00,WNW,284,1.0,2.0,69,0.00,,---,0.00,VWS V14.01,2013-07-09 18:37:00,
2013-07-09 14:42:00,86.8,76.3,30.00,WNW,291,1.0,2.0,71,0.00,,---,0.00,VWS V14.01,2013-07-09 18:42:00,
2013-07-09 14:47:00,86.5,76.4,29.99,West,266,2.0,4.0,72,0.00,,---,0.00,VWS V14.01,2013-07-09 18:47:00,
2013-07-09 14:52:00,86.4,76.7,29.99,WNW,302,4.0,5.0,73,0.00,,---,0.00,VWS V14.01,2013-07-09 18:52:00,
2013-07-09 14:57:00,85.9,77.1,30.00,West,266,2.0,5.0,75,0.00,,---,0.00,VWS V14.01,2013-07-09 18:57:00,
2013-07-09 15:00:00,85.3,77.3,29.99,WNW,284,0.0,5.0,77,0.00,,---,0.00,VWS V15.00,2013-07-09 19:00:00,
2013-07-09 15:02:00,85.3,77.3,29.99,WNW,284,1.0,1.0,77,0.00,,---,0.00,VWS V14.01,2013-07-09 19:02:00,
2013-07-09 15:07:00,84.5,77.3,29.99,West,271,2.0,3.0,79,0.00,,---,0.00,VWS V14.01,2013-07-09 19:07:00,
2013-07-09 15:12:00,83.9,77.4,29.98,West,273,2.0,3.0,81,0.00,,---,0.00,VWS V14.01,2013-07-09 19:12:00,
2013-07-09 15:17:00,83.4,77.3,29.98,West,263,1.0,3.0,82,0.00,,---,0.00,VWS V14.01,2013-07-09 19:17:00,
2013-07-09 15:22:00,83.2,78.2,29.98,West,262,0.0,3.0,85,0.00,,---,0.00,VWS V14.01,2013-07-09 19:22:00,
2013-07-09 15:27:00,83.0,77.7,29.98,West,271,0.0,3.0,84,0.00,,---,0.00,VWS V14.01,2013-07-09 19:27:00,
2013-07-09 15:30:00,83.0,78.0,29.98,West,273,0.0,3.0,85,0.00,,---,0.00,VWS V15.00,2013-07-09 19:30:00,
2013-07-09 15:32:00,83.0,78.0,29.98,West,273,0.0,0.0,85,0.00,,---,0.00,VWS V14.01,2013-07-09 19:32:00,
2013-07-09 15:37:00,83.6,78.3,29.98,SSE,152,0.0,2.0,84,0.00,,---,0.00,VWS V14.01,2013-07-09 19:37:00,
2013-07-09 15:42:00,83.9,77.8,29.98,SE,127,2.0,3.0,82,0.00,,---,0.00,VWS V14.01,2013-07-09 19:42:00,
2013-07-09 15:47:00,83.8,77.3,29.98,SE,137,2.0,4.0,81,0.00,,---,0.00,VWS V14.01,2013-07-09 19:47:00,
2013-07-09 15:52:00,83.9,77.1,29.98,SSW,197,2.0,4.0,80,0.00,,---,0.00,VWS V14.01,2013-07-09 19:52:00,
2013-07-09 15:57:00,84.1,77.3,29.97,SSE,155,2.0,4.0,80,0.00,,---,0.00,VWS V14.01,2013-07-09 19:57:00,
2013-07-09 16:00:00,84.6,77.4,29.97,SSE,155,2.0,4.0,79,0.00,,---,0.00,VWS V15.00,2013-07-09 20:00:00,
2013-07-09 16:02:00,84.6,77.4,29.97,SSE,155,2.0,2.0,79,0.00,,---,0.00,VWS V14.01,2013-07-09 20:02:00,
2013-07-09 16:07:00,85.2,78.3,29.96,SSE,147,1.0,3.0,80,0.00,,---,0.00,VWS V14.01,2013-07-09 20:07:00,
2013-07-09 16:12:00,85.8,78.2,29.96,SE,134,1.0,3.0,78,0.00,,---,0.00,VWS V14.01,2013-07-09 20:12:00,
2013-07-09 16:17:00,86.3,79.0,29.96,SSE,159,0.0,3.0,79,0.00,,---,0.00,VWS V14.01,2013-07-09 20:17:00,
2013-07-09 16:22:00,86.9,78.8,29.96,NW,326,0.0,3.0,77,0.00,,---,0.00,VWS V14.01,2013-07-09 20:22:00,
2013-07-09 16:27:00,87.4,78.1,29.96,West,280,1.0,3.0,74,0.00,,---,0.00,VWS V14.01,2013-07-09 20:27:00,
2013-07-09 16:30:00,87.4,78.9,29.95,East,101,0.0,3.0,76,0.00,,---,0.00,VWS V15.00,2013-07-09 20:30:00,
2013-07-09 16:32:00,87.4,78.9,29.95,East,100,0.0,0.0,76,0.00,,---,0.00,VWS V14.01,2013-07-09 20:32:00,
2013-07-09 16:37:00,87.3,78.0,29.95,SW,217,0.0,2.0,74,0.00,,---,0.00,VWS V14.01,2013-07-09 20:37:00,
2013-07-09 16:42:00,87.3,78.4,29.95,North,357,0.0,2.0,75,0.00,,---,0.00,VWS V14.01,2013-07-09 20:42:00,
2013-07-09 16:47:00,87.3,78.4,29.96,SSE,165,1.0,2.0,75,0.00,,---,0.00,VWS V14.01,2013-07-09 20:47:00,
2013-07-09 16:52:00,87.3,77.6,29.96,SSW,207,2.0,6.0,73,0.00,,---,0.00,VWS V14.01,2013-07-09 20:52:00,
2013-07-09 16:57:00,87.3,78.0,29.96,SW,235,0.0,6.0,74,0.00,,---,0.00,VWS V14.01,2013-07-09 20:57:00,
2013-07-09 17:00:00,87.1,78.2,29.95,SE,135,3.0,6.0,75,0.00,,---,0.00,VWS V15.00,2013-07-09 21:00:00,
2013-07-09 17:02:00,87.1,78.2,29.95,SSE,154,2.0,3.0,75,0.00,,---,0.00,VWS V14.01,2013-07-09 21:02:00,
2013-07-09 17:07:00,86.8,77.9,29.96,SE,133,0.0,4.0,75,0.00,,---,0.00,VWS V14.01,2013-07-09 21:07:00,
2013-07-09 17:12:00,86.6,77.7,29.96,SE,124,1.0,5.0,75,0.00,,---,0.00,VWS V14.01,2013-07-09 21:12:00,
2013-07-09 17:17:00,86.3,77.8,29.95,ENE,75,0.0,5.0,76,0.00,,---,0.00,VWS V14.01,2013-07-09 21:17:00,
2013-07-09 17:21:00,86.1,77.7,29.95,NNW,333,0.0,5.0,76,0.00,,---,0.00,VWS V14.01,2013-07-09 21:21:00,
2013-07-09 17:26:00,86.2,77.8,29.96,NNW,335,0.0,5.0,76,0.00,,---,0.00,VWS V14.01,2013-07-09 21:26:00,
2013-07-09 17:30:00,86.2,76.5,29.96,West,277,1.0,5.0,73,0.00,,---,0.00,VWS V15.00,2013-07-09 21:30:00,
2013-07-09 17:31:00,86.2,76.5,29.96,West,277,1.0,1.0,73,0.00,,---,0.00,VWS V14.01,2013-07-09 21:31:00,
2013-07-09 17:36:00,86.2,76.9,29.96,West,259,1.0,3.0,74,0.00,,---,0.00,VWS V14.01,2013-07-09 21:36:00,
2013-07-09 17:41:00,86.2,76.9,29.96,SE,131,0.0,3.0,74,0.00,,---,0.00,VWS V14.01,2013-07-09 21:41:00,
2013-07-09 17:46:00,86.0,75.5,29.96,NW,322,0.0,3.0,71,0.00,,---,0.00,VWS V14.01,2013-07-09 21:46:00,
2013-07-09 17:51:00,85.9,75.8,29.96,NNE,19,1.0,3.0,72,0.00,,---,0.00,VWS V14.01,2013-07-09 21:51:00,
2013-07-09 17:56:00,85.9,75.0,29.96,West,276,3.0,4.0,70,0.00,,---,0.00,VWS V14.01,2013-07-09 21:56:00,
2013-07-09 18:00:00,85.9,75.8,29.96,WNW,290,0.0,4.0,72,0.00,,---,0.00,VWS V15.00,2013-07-09 22:00:00,
2013-07-09 18:01:00,85.9,75.8,29.96,WNW,290,0.0,4.0,72,0.00,,---,0.00,VWS V14.01,2013-07-09 22:01:00,
2013-07-09 18:06:00,86.0,75.9,29.96,WSW,255,1.0,2.0,72,0.00,,---,0.00,VWS V14.01,2013-07-09 22:06:00,
2013-07-09 18:11:00,86.0,75.9,29.96,WSW,246,1.0,2.0,72,0.00,,---,0.00,VWS V14.01,2013-07-09 22:11:00,
2013-07-09 18:16:00,85.8,76.2,29.95,West,259,0.0,2.0,73,0.00,,---,0.00,VWS V14.01,2013-07-09 22:16:00,
2013-07-09 18:21:00,85.7,76.5,29.95,ENE,75,0.0,2.0,74,0.00,,---,0.00,VWS V14.01,2013-07-09 22:21:00,
2013-07-09 18:26:00,85.6,76.0,29.95,SE,135,0.0,2.0,73,0.00,,---,0.00,VWS V14.01,2013-07-09 22:26:00,
2013-07-09 18:30:00,85.3,75.2,29.95,West,274,0.0,2.0,72,0.00,,---,0.00,VWS V15.00,2013-07-09 22:30:00,
2013-07-09 18:31:00,85.3,75.2,29.95,West,274,0.0,2.0,72,0.00,,---,0.00,VWS V14.01,2013-07-09 22:31:00,
2013-07-09 18:36:00,84.9,75.3,29.95,SW,225,0.0,0.0,73,0.00,,---,0.00,VWS V14.01,2013-07-09 22:36:00,
2013-07-09 18:41:00,84.6,74.6,29.94,SW,233,0.0,0.0,72,0.00,,---,0.00,VWS V14.01,2013-07-09 22:41:00,
2013-07-09 18:46:00,84.5,75.3,29.95,WSW,240,0.0,0.0,74,0.00,,---,0.00,VWS V14.01,2013-07-09 22:46:00,
2013-07-09 18:51:00,84.4,75.2,29.95,East,101,0.0,0.0,74,0.00,,---,0.00,VWS V14.01,2013-07-09 22:51:00,
2013-07-09 18:56:00,84.3,75.1,29.94,SE,135,0.0,0.0,74,0.00,,---,0.00,VWS V14.01,2013-07-09 22:56:00,
2013-07-09 19:00:00,84.3,75.5,29.94,ENE,60,0.0,0.0,75,0.00,,---,0.00,VWS V15.00,2013-07-09 23:00:00,
2013-07-09 19:01:00,84.3,75.1,29.94,ENE,60,0.0,0.0,74,0.00,,---,0.00,VWS V14.01,2013-07-09 23:01:00,
2013-07-09 19:06:00,84.1,75.3,29.94,ENE,58,0.0,0.0,75,0.00,,---,0.00,VWS V14.01,2013-07-09 23:06:00,
2013-07-09 19:11:00,84.1,74.9,29.94,West,263,0.0,0.0,74,0.00,,---,0.00,VWS V14.01,2013-07-09 23:11:00,
2013-07-09 19:16:00,84.0,75.2,29.94,West,276,0.0,4.0,75,0.00,,---,0.00,VWS V14.01,2013-07-09 23:16:00,
2013-07-09 19:21:00,84.0,74.8,29.94,WSW,256,0.0,4.0,74,0.00,,---,0.00,VWS V14.01,2013-07-09 23:21:00,
2013-07-09 19:26:00,84.0,75.2,29.94,WSW,257,0.0,4.0,75,0.00,,---,0.00,VWS V14.01,2013-07-09 23:26:00,
2013-07-09 19:30:00,83.9,75.5,29.93,SSW,208,0.0,4.0,76,0.00,,---,0.00,VWS V15.00,2013-07-09 23:30:00,
2013-07-09 19:31:00,83.9,75.5,29.93,SSW,209,0.0,4.0,76,0.00,,---,0.00,VWS V14.01,2013-07-09 23:31:00,
2013-07-09 19:36:00,84.0,75.2,29.93,SE,127,0.0,0.0,75,0.00,,---,0.00,VWS V14.01,2013-07-09 23:36:00,
2013-07-09 19:41:00,84.1,75.3,29.94,SE,127,0.0,0.0,75,0.00,,---,0.00,VWS V14.01,2013-07-09 23:41:00,
2013-07-09 19:46:00,84.2,75.0,29.94,ESE,123,0.0,0.0,74,0.00,,---,0.00,VWS V14.01,2013-07-09 23:46:00,
2013-07-09 19:51:00,84.3,75.1,29.94,SW,222,0.0,0.0,74,0.00,,---,0.00,VWS V14.01,2013-07-09 23:51:00,
2013-07-09 19:56:00,84.2,75.0,29.94,North,4,0.0,0.0,74,0.00,,---,0.00,VWS V14.01,2013-07-09 23:56:00,
2013-07-09 20:00:00,84.1,75.3,29.94,NNW,339,0.0,0.0,75,0.00,,---,0.00,VWS V15.00,2013-07-10 00:00:00,
2013-07-09 20:01:00,84.1,75.3,29.94,NNW,339,0.0,0.0,75,0.00,,---,0.00,VWS V14.01,2013-07-10 00:01:00,
2013-07-09 20:06:00,84.0,74.8,29.94,NNW,339,0.0,0.0,74,0.00,,---,0.00,VWS V14.01,2013-07-10 00:06:00,
2013-07-09 20:11:00,84.0,75.2,29.94,WNW,297,1.0,2.0,75,0.00,,---,0.00,VWS V14.01,2013-07-10 00:11:00,
2013-07-09 20:16:00,83.8,74.6,29.94,East,83,0.0,3.0,74,0.00,,---,0.00,VWS V14.01,2013-07-10 00:16:00,
2013-07-09 20:21:00,83.7,74.5,29.95,East,82,0.0,3.0,74,0.00,,---,0.00,VWS V14.01,2013-07-10 00:21:00,
2013-07-09 20:26:00,83.7,74.5,29.95,WNW,284,0.0,3.0,74,0.00,,---,0.00,VWS V14.01,2013-07-10 00:26:00,
2013-07-09 20:30:00,83.7,74.5,29.95,WNW,283,0.0,3.0,74,0.00,,---,0.00,VWS V15.00,2013-07-10 00:30:00,
2013-07-09 20:31:00,83.7,74.5,29.95,WNW,284,0.0,3.0,74,0.00,,---,0.00,VWS V14.01,2013-07-10 00:31:00,
2013-07-09 20:36:00,83.6,74.4,29.95,NW,323,0.0,0.0,74,0.00,,---,0.00,VWS V14.01,2013-07-10 00:36:00,
2013-07-09 20:41:00,83.4,74.2,29.95,NW,323,0.0,0.0,74,0.00,,---,0.00,VWS V14.01,2013-07-10 00:41:00,
2013-07-09 20:46:00,83.3,74.2,29.94,NW,316,0.0,0.0,74,0.00,,---,0.00,VWS V14.01,2013-07-10 00:46:00,
2013-07-09 20:51:00,83.2,74.5,29.94,East,79,0.0,0.0,75,0.00,,---,0.00,VWS V14.01,2013-07-10 00:51:00,
2013-07-09 20:56:00,83.0,74.7,29.94,East,79,0.0,0.0,76,0.00,,---,0.00,VWS V14.01,2013-07-10 00:56:00,
2013-07-09 21:00:00,82.8,74.1,29.94,SSE,148,0.0,0.0,75,0.00,,---,0.00,VWS V15.00,2013-07-10 01:00:00,
2013-07-09 21:01:00,82.8,74.1,29.94,SSE,148,0.0,0.0,75,0.00,,---,0.00,VWS V14.01,2013-07-10 01:01:00,
2013-07-09 21:06:00,82.7,74.0,29.94,SSE,148,0.0,0.0,75,0.00,,---,0.00,VWS V14.01,2013-07-10 01:06:00,
2013-07-09 21:11:00,82.5,74.2,29.94,SSE,148,0.0,0.0,76,0.00,,---,0.00,VWS V14.01,2013-07-10 01:11:00,
2013-07-09 21:16:00,82.3,74.0,29.94,SSE,148,0.0,0.0,76,0.00,,---,0.00,VWS V14.01,2013-07-10 01:16:00,
2013-07-09 21:21:00,82.1,74.2,29.94,SSE,160,0.0,0.0,77,0.00,,---,0.00,VWS V14.01,2013-07-10 01:21:00,
2013-07-09 21:26:00,82.1,74.2,29.94,SE,146,0.0,2.0,77,0.00,,---,0.00,VWS V14.01,2013-07-10 01:26:00,
2013-07-09 21:30:00,82.1,74.2,29.94,South,169,1.0,4.0,77,0.00,,---,0.00,VWS V15.00,2013-07-10 01:30:00,
2013-07-09 21:31:00,82.1,74.2,29.94,SSE,160,2.0,4.0,77,0.00,,---,0.00,VWS V14.01,2013-07-10 01:31:00,
2013-07-09 21:36:00,82.2,73.9,29.95,South,173,0.0,2.0,76,0.00,,---,0.00,VWS V14.01,2013-07-10 01:36:00,
2013-07-09 21:41:00,82.1,74.2,29.95,SE,146,1.0,2.0,77,0.00,,---,0.00,VWS V14.01,2013-07-10 01:41:00,
2013-07-09 21:46:00,82.0,74.1,29.95,ESE,102,0.0,2.0,77,0.00,,---,0.00,VWS V14.01,2013-07-10 01:46:00,
2013-07-09 21:51:00,81.9,74.4,29.95,SE,129,0.0,2.0,78,0.00,,---,0.00,VWS V14.01,2013-07-10 01:51:00,
2013-07-09 21:56:00,81.9,74.4,29.95,SSE,156,2.0,3.0,78,0.00,,---,0.00,VWS V14.01,2013-07-10 01:56:00,
2013-07-09 22:00:00,81.9,74.0,29.95,SSE,157,1.0,4.0,77,0.00,,---,0.00,VWS V15.00,2013-07-10 02:00:00,
2013-07-09 22:01:00,81.9,74.0,29.95,SSE,158,1.0,4.0,77,0.00,,---,0.00,VWS V14.01,2013-07-10 02:01:00,
2013-07-09 22:06:00,81.9,74.0,29.95,SSE,150,0.0,3.0,77,0.00,,---,0.00,VWS V14.01,2013-07-10 02:06:00,
2013-07-09 22:11:00,81.7,73.8,29.95,SE,146,1.0,5.0,77,0.00,,---,0.00,VWS V14.01,2013-07-10 02:11:00,
2013-07-09 22:16:00,81.6,73.7,29.96,SSW,200,0.0,5.0,77,0.00,,---,0.00,VWS V14.01,2013-07-10 02:16:00,
2013-07-09 22:21:00,81.6,73.7,29.96,SE,131,0.0,5.0,77,0.00,,---,0.00,VWS V14.01,2013-07-10 02:21:00,
2013-07-09 22:26:00,81.5,73.6,29.96,SSE,158,1.0,5.0,77,0.00,,---,0.00,VWS V14.01,2013-07-10 02:26:00,
2013-07-09 22:30:00,81.4,73.9,29.96,SSW,198,1.0,5.0,78,0.00,,---,0.00,VWS V15.00,2013-07-10 02:30:00,
2013-07-09 22:31:00,81.4,73.9,29.96,SSW,194,2.0,5.0,78,0.00,,---,0.00,VWS V14.01,2013-07-10 02:31:00,
2013-07-09 22:36:00,81.4,73.9,29.96,South,186,0.0,3.0,78,0.00,,---,0.00,VWS V14.01,2013-07-10 02:36:00,
2013-07-09 22:41:00,81.4,73.9,29.96,SSE,159,1.0,3.0,78,0.00,,---,0.00,VWS V14.01,2013-07-10 02:41:00,
2013-07-09 22:46:00,81.4,73.5,29.96,SSE,159,0.0,3.0,77,0.00,,---,0.00,VWS V14.01,2013-07-10 02:46:00,
2013-07-09 22:51:00,81.5,74.0,29.96,SSE,163,1.0,3.0,78,0.00,,---,0.00,VWS V14.01,2013-07-10 02:51:00,
2013-07-09 22:56:00,81.4,73.9,29.96,SSE,158,1.0,3.0,78,0.00,,---,0.00,VWS V14.01,2013-07-10 02:56:00,
2013-07-09 23:00:00,81.3,73.8,29.96,SE,145,0.0,4.0,78,0.00,,---,0.00,VWS V15.00,2013-07-10 03:00:00,
2013-07-09 23:01:00,81.3,73.8,29.96,SE,146,1.0,4.0,78,0.00,,---,0.00,VWS V14.01,2013-07-10 03:01:00,
2013-07-09 23:06:00,81.2,74.1,29.96,ENE,64,2.0,4.0,79,0.00,,---,0.00,VWS V14.01,2013-07-10 03:06:00,
2013-07-09 23:11:00,81.1,74.0,29.95,SE,136,0.0,4.0,79,0.00,,---,0.00,VWS V14.01,2013-07-10 03:11:00,
2013-07-09 23:16:00,81.1,74.0,29.95,SSE,168,3.0,6.0,79,0.00,,---,0.00,VWS V14.01,2013-07-10 03:16:00,
2013-07-09 23:21:00,81.0,74.2,29.96,South,179,2.0,6.0,80,0.00,,---,0.00,VWS V14.01,2013-07-10 03:21:00,
2013-07-09 23:26:00,80.9,74.2,29.96,ESE,118,2.0,6.0,80,0.00,,---,0.00,VWS V14.01,2013-07-10 03:26:00,
2013-07-09 23:30:00,80.8,74.1,29.95,SW,214,2.0,6.0,80,0.00,,---,0.00,VWS V15.00,2013-07-10 03:30:00,
2013-07-09 23:31:00,80.8,74.1,29.95,SSE,165,2.0,6.0,80,0.00,,---,0.00,VWS V14.01,2013-07-10 03:31:00,
2013-07-09 23:36:00,80.7,74.0,29.95,SSE,166,2.0,7.0,80,0.00,,---,0.00,VWS V14.01,2013-07-10 03:36:00,
2013-07-09 23:41:00,80.7,74.0,29.95,SSE,159,1.0,7.0,80,0.00,,---,0.00,VWS V14.01,2013-07-10 03:41:00,
2013-07-09 23:46:00,80.6,73.9,29.95,WSW,248,1.0,7.0,80,0.00,,---,0.00,VWS V14.01,2013-07-10 03:46:00,
2013-07-09 23:51:00,80.4,73.7,29.95,South,188,3.0,7.0,80,0.00,,---,0.00,VWS V14.01,2013-07-10 03:51:00,
2013-07-09 23:56:00,80.3,73.6,29.95,SE,141,3.0,7.0,80,0.00,,---,0.00,VWS V14.01,2013-07-10 03:56:00,